LYBELDSP

Guest
Details From LYBE - Belgrade
To LDSP - SPLIT
Flight Number -
Tags generated
Created
Modified
Stats Distance 192 nm / 356 km
Max Altitude 20,600 ft / 6,279 m
Waypoints 3
Social Downloads 0
Likes 0
Share VATSIM

Download

Looking for another format? Having issues loading an existing format? Contact us
Advertisement - Login to hide

Notes

Basic altitude profile: - Ascent Rate: 2500ft/min - Ascent Speed: 250kts - Cruise Altitude: 35000ft - Cruise Speed: 420kts - Descent Rate: 1500ft/min - Descent Speed: 250kts Options: - Use NATs: yes - Use PACOTS: no - Use low airways: yes - Use high airways: yes

Route

LYBE KEB LDSP

ID Type Via Altitude Latitude Longitude Leg Dist Tot Dist Heading (true) Name
O LYBE APT - 0 ft / 0 m 44.81843˚ 20.30921˚ - 0 nm - Belgrade
KEB VOR - 20,600 ft / 6,279 m 43.93386˚ 18.44983˚ 95 nm 95 nm 237° / 236° SARAJEVO VOR-DME
O LDSP APT - 0 ft / 0 m 43.53903˚ 16.29811˚ 96 nm 192 nm 256° / 255° SPLIT

Altitude Profile

Advertisement - Login to hide

Weather


0- 5 10 15 20 25 30 35+ Temperature / ° C

Clouds and Precipitation
Forecast for 2017-12-15 18:00 UTC. Updated an hour ago

Ground ~20,000 ft ~40,000 ft Winds

LYBE

Details ICAO LYBE (BEG)
Name Belgrade
Region Serbia and Montenegro
Timezone Europe/Belgrade (UTC+1.0)
Stats Elevation 335 ft / 102 m (AMSL)
Location 44.818429° 20.309211°
Runways 1
Magnetic Variation 4.672° E

METAR

LYBE 151400Z 15017KT CAVOK 13/05 Q1002 NOSIG

Decode

TAF

TAF LYBE 151100Z 1512/1612 16015KT 9999 SCT040 TX14/1513Z TN05/1612Z TEMPO 1514/1520 5000 RA BECMG 1601/1603 32010KT 4000 -RA BR BKN008 BKN025

Decode

Departure Runways

ID Width Length Bearing (true) Bearing (mag) Surface Threshold Offset Overrun Length
12 148 ft / 45 m 11,138 ft / 3,395 m 122.00° 117.33° Asphalt 1,000 ft / 305 m 0 ft / 0 m
30 148 ft / 45 m 11,138 ft / 3,395 m 302.03° 297.36° Asphalt 1,312 ft / 400 m 0 ft / 0 m

LDSP

Details ICAO LDSP (SPU)
Name SPLIT
Region Croatia
Timezone Europe/Zagreb (UTC+1.0)
Stats Elevation 79 ft / 24 m (AMSL)
Location 43.539026° 16.298112°
Runways 1
Magnetic Variation 3.837° E

METAR

LDSP 151400Z 16011KT 9999 -RA FEW020 BKN040 15/11 Q1001 NOSIG

Decode

TAF

TAF LDSP 151125Z 1512/1612 12012KT 9999 FEW020 BKN030 TX16/1512Z TN07/1603Z TEMPO 1512/1604 4000 RA PROB30 TEMPO 1518/1602 3000 TSRA FEW020CB BKN025 BECMG 1523/1601 34008KT PROB30 TEMPO 1609/1612 SHRA FEW020TCU BKN025

Decode

Destination Runways

ID Width Length Bearing (true) Bearing (mag) Surface Threshold Offset Overrun Length
05 148 ft / 45 m 8,357 ft / 2,547 m 52.48° 48.64° Asphalt 0 ft / 0 m 76 ft / 23 m
23 148 ft / 45 m 8,357 ft / 2,547 m 232.50° 228.66° Asphalt 525 ft / 160 m 820 ft / 250 m

Approach Navaids

Runway Type Ident Frequency Range Bearing (true) Bearing (mag) Slope Elevation
05 Localiser IST 110.50 MHz 25 nm / 46 km 52.57° 48.73° - 69 ft / 21 m (AMSL)
05 Glidescope IST 110.50 MHz 25 nm / 46 km 52.57° 48.73° 3.00° 52 ft / 16 m (AMSL)

Popular Alternatives